QPF
0.03 0.03 0.03 0.03 0.03 0.04 0.05 0.07 0.10 0.11 0.10 0.07 0.06 0.08 0.09 0.10 0.10 0.09 0.09 0.11 0.08 0.05 0.04 0.04 0.05 0.04 0.06 0.07 0.07 0.06 0.07 0.06 0.06 0.06 0.05 0.04 0.04 0.04 0.05 0.05 0.06 0.06 0.07
0.02 0.02 0.02 0.02 0.02 0.03 0.03 0.05 0.06 0.07 0.08 0.07 0.07 0.08 0.08 0.08 0.08 0.07 0.07 0.07 0.06 0.04 0.02 0.03 0.03 0.03 0.05 0.05 0.05 0.06 0.06 0.04 0.04 0.07 0.08 0.06 0.05 0.03 0.02 0.04 0.05 0.05 0.06
0.01 0.02 0.02 0.02 0.02 0.03 0.03 0.04 0.04 0.05 0.06 0.07 0.07 0.06 0.07 0.06 0.06 0.06 0.05 0.05 0.05 0.05 0.03 0.03 0.03 0.03 0.03 0.04 0.05 0.05 0.04 0.04 0.03 0.04 0.06 0.07 0.06 0.03 0.02 0.01 0.03 0.04 0.05
0.01 0.02 0.01 0.02 0.02 0.03 0.03 0.05 0.05 0.05 0.06 0.06 0.07 0.07 0.07 0.06 0.05 0.04 0.03 0.03 0.04 0.04 0.03 0.03 0.03 0.02 0.02 0.03 0.03 0.03 0.04 0.05 0.04 0.03 0.03 0.04 0.04 0.04 0.03 0.02 0.02 0.03 0.04
0.01 0.02 0.01 0.02 0.03 0.03 0.02 0.03 0.04 0.05 0.05 0.07 0.10 0.09 0.08 0.08 0.05 0.03 0.03 0.03 0.03 0.04 0.03 0.03 0.03 0.02 0.02 0.02 0.02 0.02 0.03 0.04 0.04 0.03 0.02 0.02 0.02 0.03 0.04 0.04 0.03 0.03 0.03
0.01 0.01 0.02 0.02 0.03 0.03 0.02 0.02 0.03 0.04 0.04 0.07 0.11 0.11 0.09 0.08 0.06 0.04 0.03 0.03 0.03 0.03 0.03 0.03 0.03 0.02 0.02 0.02 0.01 0.01 0.02 0.03 0.03 0.02 0.01 0.01 0.01 0.02 0.02 0.03 0.03 0.04 0.03
0.03 0.01 0.01 0.02 0.02 0.03 0.02 0.02 0.03 0.03 0.04 0.05 0.09 0.12 0.10 0.07 0.05 0.05 0.04 0.03 0.04 0.04 0.03 0.02 0.02 0.02 0.01 0.01 0.01 0.01 0.02 0.02 0.02 0.02 0.01 0.01 0.01 0.01 0.01 0.01 0.02 0.02 0.01
0.03 0.01 0.01 0.03 0.03 0.03 0.02 0.03 0.03 0.04 0.04 0.05 0.07 0.08 0.09 0.07 0.05 0.06 0.06 0.03 0.03 0.03 0.02 0.02 0.02 0.01 0.01 0.01 0.01 0.01 0.01 0.02 0.02 0.01 0.01 0.01 0.01 0.01 0.01 0.01 0.02 0.01 0.01
0.01 0.01 0.01 0.03 0.02 0.02 0.02 0.03 0.03 0.03 0.03 0.04 0.05 0.06 0.07 0.06 0.06 0.06 0.06 0.03 0.02 0.02 0.02 0.01 0.01 0.01 0.01 0.01 0.01 0.01 0.01 0.01 0.01 0.01 0.01 0.00 0.00 0.00 0.00 0.00 0.01 0.01 0.01
0.00 0.01 0.01 0.02 0.02 0.01 0.01 0.03 0.02 0.02 0.02 0.02 0.04 0.04 0.05 0.04 0.05 0.04 0.03 0.02 0.01 0.01 0.01 0.01 0.01 0.01 0.01 0.01 0.01 0.01 0.01 0.02 0.01 0.01 0.01 0.00 0.00 0.00 0.00 0.00 0.00 0.01 0.01
0.00 0.00 0.01 0.01 0.01 0.01 0.01 0.02 0.02 0.02 0.01 0.01 0.02 0.03 0.03 0.03 0.03 0.03 0.02 0.02 0.02 0.01 0.01 0.01 0.01 0.01 0.01 0.01 0.01 0.01 0.01 0.01 0.01 0.01 0.01 0.01 0.00 0.00 0.00 0.00 0.00 0.00 0.01
0.00 0.00 0.00 0.00 0.01 0.01 0.01 0.01 0.01 0.01 0.01 0.01 0.02 0.03 0.02 0.01 0.01 0.01 0.02 0.02 0.02 0.01 0.01 0.01 0.01 0.01 0.01 0.01 0.01 0.01 0.01 0.01 0.01 0.00 0.00 0.00 0.00 0.00 0.00 0.00 0.00 0.00 0.00
0.00 0.00 0.00 0.00 0.00 0.00 0.01 0.01 0.01 0.01 0.00 0.01 0.02 0.03 0.02 0.01 0.01 0.01 0.01 0.01 0.01 0.01 0.01 0.00 0.01 0.01 0.00 0.00 0.00 0.01 0.00 0.00 0.00 0.00 0.00 0.00 0.00 0.00 0.00 0.00 0.00 0.00 0.00
0.00 0.01 0.00 0.00 0.00 0.01 0.01 0.01 0.01 0.01 0.01 0.01 0.02 0.02 0.02 0.01 0.01 0.01 0.01 0.01 0.01 0.01 0.01 0.00 0.00 0.00 0.00 0.00 0.00 0.00 0.00 0.00 0.00 0.00 0.00 0.00 0.00 0.00 0.00 0.00 0.00 0.00 0.00
0.00 0.00 0.01 0.01 0.00 0.00 0.00 0.00 0.00 0.01 0.01 0.01 0.01 0.01 0.01 0.01 0.00 0.00 0.00 0.01 0.01 0.01 0.00 0.00 0.00 0.00 0.00 0.00 0.00 0.00 0.00 0.00 0.00 0.00 0.00 0.01 0.01 0.01 0.00 0.00 0.00 0.00 0.00
0.00 0.00 0.00 0.00 0.00 0.00 0.00 0.00 0.00 0.00 0.01 0.01 0.01 0.01 0.01 0.00 0.00 0.00 0.00 0.00 0.00 0.00 0.00 0.00 0.00 0.00 0.00 0.00 0.00 0.00 0.00 0.00 0.00 0.00 0.00 0.01 0.01 0.01 0.00 0.00 0.00 0.00 0.00
0.00 0.00 0.00 0.00 0.00 0.00 0.00 0.00 0.00 0.00 0.01 0.01 0.01 0.01 0.00 0.00 0.00 0.00 0.00 0.00 0.00 0.00 0.00 0.00 0.00 0.00 0.00 0.00 0.00 0.00 0.00 0.00 0.00 0.00 0.00 0.00 0.00 0.00 0.00 0.00 0.00 0.00 0.00
0.00 0.01 0.00 0.00 0.00 0.00 0.00 0.00 0.00 0.00 0.01 0.01 0.01 0.00 0.00 0.00 0.00 0.00 0.00 0.00 0.00 0.00 0.00 0.00 0.00 0.00 0.00 0.00 0.00 0.00 0.00 0.00 0.00 0.00 0.00 0.00 0.00 0.00 0.00 0.01 0.00 0.00 0.01
0.00 0.00 0.00 0.00 0.00 0.00 0.00 0.00 0.00 0.00 0.00 0.00 0.00 0.00 0.00 0.00 0.01 0.01 0.01 0.01 0.01 0.00 0.00 0.00 0.00 0.00 0.01 0.01 0.01 0.01 0.00 0.00 0.00 0.00 0.00 0.00 0.00 0.01 0.01 0.00 0.00 0.01 0.01
0.00 0.00 0.00 0.00 0.00 0.00 0.00 0.00 0.00 0.00 0.00 0.00 0.01 0.01 0.00 0.00 0.00 0.01 0.01 0.01 0.01 0.01 0.01 0.01 0.00 0.01 0.01 0.01 0.01 0.00 0.00 0.00 0.00 0.00 0.00 0.00 0.00 0.00 0.00 0.00 0.00 0.01 0.01
0.00 0.00 0.00 0.00 0.00 0.00 0.00 0.00 0.00 0.00 0.00 0.00 0.00 0.00 0.00 0.01 0.01 0.01 0.01 0.01 0.01 0.01 0.01 0.01 0.01 0.01 0.01 0.01 0.00 0.01 0.00 0.00 0.00 0.00 0.01 0.01 0.01 0.01 0.01 0.00 0.00 0.01 0.01
0.00 0.00 0.00 0.00 0.00 0.00 0.00 0.01 0.01 0.01 0.00 0.00 0.00 0.01 0.01 0.02 0.02 0.01 0.01 0.01 0.01 0.02 0.02 0.02 0.01 0.01 0.01 0.01 0.00 0.01 0.00 0.00 0.00 0.01 0.02 0.02 0.02 0.01 0.01 0.00 0.00 0.00 0.00
0.00 0.00 0.00 0.00 0.00 0.00 0.00 0.00 0.00 0.01 0.01 0.01 0.00 0.01 0.01 0.02 0.02 0.01 0.01 0.01 0.01 0.02 0.01 0.01 0.01 0.01 0.01 0.01 0.01 0.01 0.01 0.01 0.01 0.01 0.02 0.02 0.01 0.01 0.00 0.00 0.00 0.00 0.00
0.01 0.00 0.00 0.00 0.00 0.00 0.00 0.00 0.00 0.01 0.01 0.01 0.01 0.01 0.01 0.01 0.01 0.02 0.01 0.01 0.01 0.01 0.01 0.01 0.01 0.01 0.01 0.01 0.01 0.01 0.01 0.01 0.00 0.00 0.01 0.01 0.01 0.00 0.00 0.00 0.00 0.00 0.00
0.01 0.02 0.02 0.01 0.01 0.01 0.00 0.01 0.01 0.01 0.01 0.02 0.01 0.02 0.02 0.02 0.02 0.01 0.02 0.02 0.02 0.02 0.01 0.01 0.01 0.01 0.01 0.02 0.02 0.02 0.02 0.02 0.02 0.01 0.01 0.01 0.01 0.01 0.01 0.02 0.01 0.01 0.01
0.03 0.04 0.04 0.03 0.02 0.02 0.02 0.01 0.02 0.02 0.02 0.02 0.02 0.02 0.02 0.02 0.02 0.03 0.03 0.03 0.02 0.02 0.02 0.01 0.02 0.02 0.02 0.02 0.02 0.02 0.02 0.02 0.02 0.01 0.01 0.01 0.01 0.02 0.02 0.02 0.03 0.02 0.02
MSLP
1011.71 1012.07 1012.38 1012.64 1012.87 1013.11 1013.38 1013.72 1014.13 1014.59 1015.09 1015.58 1016.03 1016.41 1016.73 1016.97 1017.17 1017.35 1017.53 1017.74 1017.97 1018.22 1018.47 1018.69 1018.86 1018.96 1019.00 1018.97 1018.90 1018.82 1018.73 1018.67 1018.63 1018.60 1018.59 1018.57 1018.54 1018.49 1018.42 1018.36 1018.30 1018.27 1018.28
1011.44 1011.83 1012.15 1012.40 1012.63 1012.86 1013.15 1013.51 1013.98 1014.52 1015.11 1015.70 1016.25 1016.72 1017.08 1017.35 1017.53 1017.67 1017.80 1017.95 1018.13 1018.34 1018.57 1018.79 1018.96 1019.08 1019.12 1019.10 1019.02 1018.92 1018.82 1018.74 1018.68 1018.66 1018.64 1018.64 1018.62 1018.59 1018.53 1018.45 1018.37 1018.30 1018.26
1011.06 1011.50 1011.85 1012.13 1012.37 1012.62 1012.92 1013.32 1013.83 1014.43 1015.10 1015.78 1016.41 1016.94 1017.36 1017.64 1017.82 1017.94 1018.03 1018.14 1018.28 1018.47 1018.68 1018.90 1019.09 1019.22 1019.28 1019.26 1019.18 1019.07 1018.95 1018.85 1018.78 1018.74 1018.73 1018.73 1018.73 1018.71 1018.67 1018.60 1018.51 1018.43 1018.35
1010.58 1011.08 1011.50 1011.84 1012.12 1012.40 1012.72 1013.14 1013.68 1014.32 1015.04 1015.77 1016.46 1017.05 1017.50 1017.82 1018.01 1018.12 1018.20 1018.28 1018.41 1018.58 1018.80 1019.03 1019.23 1019.39 1019.47 1019.47 1019.40 1019.28 1019.15 1019.02 1018.93 1018.88 1018.86 1018.87 1018.88 1018.88 1018.86 1018.80 1018.73 1018.63 1018.54
1010.02 1010.60 1011.10 1011.52 1011.86 1012.18 1012.54 1012.97 1013.52 1014.17 1014.89 1015.64 1016.36 1016.98 1017.47 1017.82 1018.04 1018.17 1018.25 1018.35 1018.48 1018.66 1018.89 1019.14 1019.37 1019.56 1019.67 1019.69 1019.64 1019.52 1019.38 1019.25 1019.14 1019.07 1019.04 1019.05 1019.07 1019.09 1019.08 1019.05 1018.98 1018.89 1018.79
1009.39 1010.06 1010.67 1011.17 1011.59 1011.97 1012.35 1012.78 1013.31 1013.93 1014.63 1015.37 1016.08 1016.71 1017.23 1017.61 1017.87 1018.03 1018.16 1018.28 1018.44 1018.65 1018.91 1019.19 1019.46 1019.68 1019.82 1019.88 1019.85 1019.75 1019.61 1019.47 1019.35 1019.28 1019.24 1019.25 1019.28 1019.30 1019.32 1019.30 1019.25 1019.16 1019.06
1008.73 1009.50 1010.20 1010.80 1011.30 1011.72 1012.12 1012.54 1013.03 1013.60 1014.25 1014.93 1015.61 1016.23 1016.76 1017.18 1017.48 1017.70 1017.88 1018.06 1018.26 1018.51 1018.81 1019.13 1019.43 1019.69 1019.87 1019.96 1019.97 1019.90 1019.78 1019.65 1019.54 1019.46 1019.43 1019.43 1019.46 1019.50 1019.52 1019.52 1019.48 1019.41 1019.31
1008.10 1008.94 1009.73 1010.41 1010.98 1011.44 1011.85 1012.24 1012.68 1013.18 1013.75 1014.37 1015.00 1015.59 1016.12 1016.56 1016.91 1017.19 1017.43 1017.67 1017.93 1018.23 1018.57 1018.92 1019.26 1019.56 1019.78 1019.91 1019.96 1019.93 1019.85 1019.74 1019.65 1019.58 1019.56 1019.57 1019.60 1019.65 1019.68 1019.69 1019.66 1019.59 1019.49
1007.52 1008.41 1009.26 1010.01 1010.63 1011.13 1011.54 1011.91 1012.29 1012.72 1013.20 1013.74 1014.30 1014.86 1015.38 1015.83 1016.22 1016.56 1016.86 1017.16 1017.47 1017.82 1018.19 1018.58 1018.95 1019.28 1019.54 1019.72 1019.82 1019.83 1019.80 1019.74 1019.68 1019.64 1019.62 1019.65 1019.69 1019.74 1019.78 1019.79 1019.77 1019.71 1019.62
1007.02 1007.94 1008.82 1009.62 1010.27 1010.80 1011.21 1011.56 1011.90 1012.26 1012.67 1013.13 1013.63 1014.14 1014.64 1015.10 1015.52 1015.90 1016.25 1016.60 1016.96 1017.34 1017.74 1018.15 1018.54 1018.90 1019.20 1019.42 1019.56 1019.63 1019.65 1019.64 1019.62 1019.62 1019.63 1019.67 1019.72 1019.77 1019.82 1019.84 1019.82 1019.77 1019.67
1006.62 1007.52 1008.41 1009.22 1009.90 1010.45 1010.87 1011.21 1011.53 1011.85 1012.21 1012.62 1013.07 1013.54 1014.02 1014.48 1014.91 1015.31 1015.70 1016.07 1016.46 1016.86 1017.28 1017.70 1018.10 1018.48 1018.80 1019.06 1019.25 1019.37 1019.45 1019.49 1019.52 1019.55 1019.59 1019.64 1019.70 1019.76 1019.81 1019.83 1019.82 1019.77 1019.68
1006.27 1007.14 1008.01 1008.82 1009.50 1010.06 1010.51 1010.87 1011.19 1011.51 1011.85 1012.24 1012.66 1013.11 1013.57 1014.02 1014.45 1014.86 1015.26 1015.65 1016.04 1016.45 1016.87 1017.29 1017.70 1018.08 1018.42 1018.70 1018.93 1019.10 1019.22 1019.31 1019.38 1019.44 1019.50 1019.57 1019.64 1019.70 1019.74 1019.77 1019.76 1019.71 1019.64
1005.97 1006.78 1007.60 1008.37 1009.05 1009.62 1010.10 1010.50 1010.85 1011.20 1011.57 1011.96 1012.38 1012.82 1013.27 1013.72 1014.15 1014.56 1014.95 1015.34 1015.74 1016.14 1016.54 1016.96 1017.36 1017.74 1018.09 1018.39 1018.64 1018.84 1018.99 1019.11 1019.21 1019.29 1019.37 1019.44 1019.51 1019.57 1019.62 1019.64 1019.63 1019.60 1019.53
1005.67 1006.39 1007.13 1007.85 1008.50 1009.09 1009.59 1010.05 1010.47 1010.87 1011.29 1011.72 1012.17 1012.63 1013.08 1013.53 1013.95 1014.35 1014.74 1015.13 1015.51 1015.90 1016.30 1016.70 1017.09 1017.47 1017.82 1018.12 1018.38 1018.60 1018.77 1018.90 1019.00 1019.09 1019.17 1019.24 1019.31 1019.36 1019.40 1019.42 1019.42 1019.39 1019.34
1005.37 1005.97 1006.61 1007.25 1007.86 1008.43 1008.97 1009.47 1009.96 1010.45 1010.94 1011.43 1011.93 1012.42 1012.89 1013.34 1013.77 1014.17 1014.55 1014.93 1015.30 1015.69 1016.08 1016.47 1016.86 1017.23 1017.57 1017.87 1018.13 1018.34 1018.50 1018.63 1018.73 1018.81 1018.88 1018.94 1019.00 1019.05 1019.08 1019.10 1019.11 1019.08 1019.04
1005.06 1005.52 1006.03 1006.57 1007.11 1007.66 1008.21 1008.75 1009.30 1009.86 1010.43 1010.99 1011.54 1012.08 1012.58 1013.06 1013.49 1013.90 1014.29 1014.67 1015.05 1015.43 1015.82 1016.21 1016.60 1016.96 1017.30 1017.59 1017.83 1018.03 1018.18 1018.29 1018.37 1018.43 1018.48 1018.53 1018.57 1018.62 1018.65 1018.67 1018.68 1018.67 1018.63
1004.76 1005.08 1005.45 1005.86 1006.31 1006.80 1007.33 1007.89 1008.48 1009.10 1009.73 1010.36 1010.97 1011.55 1012.09 1012.59 1013.05 1013.48 1013.88 1014.28 1014.67 1015.06 1015.46 1015.86 1016.25 1016.62 1016.94 1017.22 1017.45 1017.63 1017.75 1017.84 1017.90 1017.94 1017.97 1018.01 1018.05 1018.09 1018.12 1018.15 1018.17 1018.15 1018.12
1004.51 1004.68 1004.89 1005.16 1005.50 1005.90 1006.38 1006.93 1007.53 1008.18 1008.85 1009.53 1010.19 1010.81 1011.39 1011.93 1012.42 1012.87 1013.30 1013.72 1014.13 1014.55 1014.97 1015.39 1015.79 1016.16 1016.48 1016.76 1016.97 1017.13 1017.23 1017.30 1017.33 1017.36 1017.38 1017.41 1017.45 1017.50 1017.54 1017.58 1017.59 1017.59 1017.54
1004.32 1004.34 1004.40 1004.52 1004.73 1005.04 1005.44 1005.94 1006.52 1007.17 1007.86 1008.56 1009.25 1009.91 1010.52 1011.09 1011.61 1012.10 1012.56 1013.00 1013.45 1013.90 1014.34 1014.78 1015.20 1015.58 1015.92 1016.19 1016.40 1016.54 1016.64 1016.69 1016.71 1016.73 1016.75 1016.78 1016.83 1016.89 1016.95 1017.00 1017.02 1017.01 1016.96
1004.15 1004.03 1003.96 1003.95 1004.04 1004.23 1004.55 1004.98 1005.52 1006.14 1006.82 1007.53 1008.23 1008.91 1009.56 1010.15 1010.70 1011.22 1011.71 1012.19 1012.67 1013.14 1013.62 1014.08 1014.52 1014.92 1015.26 1015.55 1015.76 1015.91 1016.00 1016.06 1016.08 1016.10 1016.14 1016.18 1016.24 1016.32 1016.39 1016.45 1016.48 1016.46 1016.39
1003.94 1003.72 1003.54 1003.42 1003.39 1003.49 1003.72 1004.08 1004.56 1005.15 1005.81 1006.50 1007.22 1007.91 1008.57 1009.19 1009.77 1010.31 1010.83 1011.33 1011.83 1012.33 1012.83 1013.32 1013.78 1014.20 1014.57 1014.87 1015.10 1015.26 1015.37 1015.44 1015.48 1015.52 1015.57 1015.63 1015.71 1015.79 1015.88 1015.95 1015.97 1015.95 1015.86
1003.60 1003.31 1003.04 1002.84 1002.74 1002.76 1002.91 1003.22 1003.65 1004.20 1004.84 1005.53 1006.24 1006.94 1007.62 1008.26 1008.86 1009.42 1009.96 1010.48 1011.00 1011.51 1012.03 1012.53 1013.01 1013.46 1013.85 1014.18 1014.44 1014.64 1014.77 1014.86 1014.93 1014.99 1015.05 1015.12 1015.21 1015.31 1015.40 1015.47 1015.49 1015.45 1015.34
1003.04 1002.70 1002.40 1002.15 1002.00 1001.97 1002.09 1002.35 1002.76 1003.29 1003.91 1004.59 1005.31 1006.03 1006.72 1007.38 1008.00 1008.58 1009.13 1009.66 1010.18 1010.71 1011.23 1011.75 1012.25 1012.72 1013.14 1013.50 1013.80 1014.03 1014.21 1014.33 1014.42 1014.49 1014.56 1014.64 1014.73 1014.82 1014.91 1014.96 1014.97 1014.92 1014.79
1002.22 1001.87 1001.54 1001.28 1001.11 1001.08 1001.18 1001.43 1001.83 1002.36 1002.99 1003.69 1004.42 1005.15 1005.87 1006.55 1007.18 1007.78 1008.34 1008.88 1009.41 1009.94 1010.47 1010.99 1011.51 1012.00 1012.46 1012.86 1013.19 1013.46 1013.67 1013.82 1013.92 1014.01 1014.08 1014.15 1014.22 1014.29 1014.35 1014.38 1014.37 1014.30 1014.16
1001.18 1000.82 1000.49 1000.24 1000.08 1000.06 1000.18 1000.44 1000.86 1001.41 1002.06 1002.78 1003.54 1004.30 1005.05 1005.75 1006.41 1007.02 1007.60 1008.14 1008.68 1009.21 1009.74 1010.28 1010.81 1011.33 1011.81 1012.24 1012.62 1012.92 1013.15 1013.32 1013.43 1013.51 1013.57 1013.61 1013.65 1013.68 1013.70 1013.70 1013.66 1013.57 1013.41
1000.04 999.67 999.35 999.11 998.98 998.99 999.13 999.43 999.88 1000.46 1001.14 1001.90 1002.69 1003.49 1004.27 1005.01 1005.69 1006.32 1006.91 1007.47 1008.01 1008.55 1009.09 1009.64 1010.18 1010.72 1011.22 1011.69 1012.09 1012.42 1012.67 1012.84 1012.95 1013.01 1013.03 1013.03 1013.02 1013.00 1012.97 1012.93 1012.86 1012.74 1012.58
Thickness
5756 5754 5750 5747 5743 5740 5738 5736 5733 5731 5729 5728 5726 5724 5723 5724 5723 5722 5721 5721 5721 5721 5722 5724 5722 5723 5724 5723 5723 5722 5722 5722 5721 5720 5719 5721 5723 5721 5720 5720 5720 5718 5717
5752 5749 5747 5744 5741 5738 5736 5734 5731 5730 5729 5728 5726 5724 5723 5722 5721 5721 5718 5718 5718 5719 5720 5720 5721 5720 5720 5720 5720 5719 5721 5721 5720 5718 5716 5714 5715 5716 5720 5718 5716 5715 5714
5752 5747 5744 5741 5739 5736 5735 5735 5732 5730 5728 5727 5724 5722 5719 5719 5718 5717 5717 5717 5716 5716 5717 5717 5718 5717 5719 5719 5717 5718 5717 5717 5718 5719 5717 5713 5711 5713 5715 5713 5713 5711 5710
5754 5749 5744 5740 5738 5737 5735 5733 5731 5729 5727 5725 5724 5722 5719 5717 5717 5717 5716 5715 5714 5715 5714 5714 5714 5715 5717 5716 5717 5718 5718 5716 5716 5716 5716 5716 5716 5711 5709 5711 5711 5709 5708
5757 5751 5746 5742 5740 5738 5735 5732 5730 5728 5726 5725 5723 5720 5719 5718 5717 5717 5714 5714 5714 5713 5713 5712 5712 5712 5714 5714 5714 5714 5715 5716 5716 5716 5715 5714 5713 5714 5710 5705 5705 5707 5707
5759 5753 5748 5743 5739 5737 5735 5732 5728 5726 5725 5724 5722 5719 5718 5716 5715 5714 5713 5713 5714 5713 5712 5711 5710 5711 5712 5711 5711 5712 5712 5713 5712 5713 5714 5713 5712 5711 5710 5706 5703 5702 5703
5760 5753 5747 5742 5739 5736 5734 5732 5728 5725 5725 5723 5721 5720 5718 5716 5714 5714 5713 5714 5714 5713 5711 5712 5710 5710 5709 5709 5709 5709 5710 5710 5708 5709 5710 5711 5711 5711 5709 5707 5704 5701 5702
5761 5754 5748 5744 5740 5737 5735 5732 5729 5726 5725 5723 5721 5720 5719 5718 5717 5715 5716 5715 5716 5715 5711 5710 5709 5708 5708 5708 5707 5709 5708 5706 5706 5706 5705 5707 5708 5708 5707 5705 5703 5700 5700
5760 5755 5750 5746 5742 5739 5736 5734 5730 5727 5725 5724 5721 5719 5718 5718 5718 5715 5715 5716 5714 5713 5710 5709 5708 5707 5706 5706 5706 5707 5705 5704 5705 5705 5703 5704 5705 5705 5705 5704 5703 5699 5695
5761 5756 5752 5748 5744 5742 5738 5735 5731 5728 5726 5723 5721 5720 5718 5717 5716 5715 5714 5714 5712 5711 5709 5709 5708 5706 5705 5705 5704 5704 5702 5701 5701 5700 5699 5699 5703 5702 5702 5701 5700 5699 5696
5762 5758 5754 5750 5747 5744 5740 5735 5732 5729 5726 5724 5722 5720 5718 5717 5716 5714 5713 5712 5711 5709 5708 5707 5706 5705 5704 5703 5702 5704 5701 5700 5699 5698 5698 5696 5696 5698 5699 5698 5697 5696 5694
5764 5760 5756 5752 5748 5745 5741 5737 5734 5731 5728 5725 5723 5720 5719 5717 5715 5714 5713 5711 5709 5708 5707 5706 5705 5704 5703 5702 5701 5700 5700 5698 5697 5697 5695 5694 5694 5692 5693 5693 5693 5691 5688
5763 5760 5755 5751 5748 5746 5743 5739 5736 5733 5730 5727 5723 5721 5719 5717 5715 5714 5712 5710 5709 5708 5707 5705 5704 5703 5702 5700 5699 5699 5698 5697 5696 5695 5694 5692 5691 5689 5690 5688 5689 5689 5688
5761 5758 5754 5751 5749 5746 5744 5741 5737 5735 5732 5728 5725 5722 5720 5718 5716 5714 5712 5710 5708 5707 5705 5704 5703 5702 5701 5699 5698 5697 5696 5695 5694 5693 5691 5691 5689 5687 5686 5685 5683 5682 5681
5758 5757 5753 5751 5748 5746 5743 5741 5739 5736 5733 5728 5725 5723 5721 5718 5716 5713 5711 5709 5707 5706 5704 5703 5702 5701 5700 5700 5698 5696 5695 5693 5692 5690 5689 5688 5686 5683 5681 5683 5682 5679 5678
5759 5757 5755 5752 5749 5747 5744 5742 5739 5737 5733 5729 5726 5724 5721 5718 5715 5713 5711 5708 5706 5705 5704 5702 5701 5700 5701 5697 5693 5693 5694 5692 5690 5688 5687 5686 5682 5679 5676 5674 5673 5671 5672
5760 5758 5756 5754 5751 5750 5747 5743 5741 5737 5734 5730 5727 5725 5722 5719 5716 5714 5711 5709 5706 5705 5703 5702 5701 5699 5697 5693 5690 5687 5689 5690 5688 5686 5684 5686 5686 5679 5679 5674 5669 5668 5665
5760 5760 5759 5756 5755 5753 5750 5746 5743 5738 5734 5731 5729 5726 5723 5720 5717 5715 5712 5709 5707 5705 5703 5701 5700 5698 5696 5691 5687 5684 5685 5687 5686 5684 5683 5681 5680 5679 5676 5674 5673 5671 5668
5763 5762 5762 5761 5757 5755 5751 5747 5743 5740 5736 5734 5731 5729 5726 5722 5719 5715 5713 5711 5708 5705 5703 5701 5700 5697 5695 5689 5685 5681 5684 5684 5683 5683 5681 5679 5677 5673 5668 5667 5667 5666 5666
5762 5761 5762 5761 5757 5755 5752 5747 5744 5740 5738 5737 5735 5732 5728 5724 5721 5718 5714 5711 5708 5705 5703 5702 5700 5697 5695 5689 5683 5678 5683 5683 5682 5681 5679 5674 5673 5669 5664 5663 5663 5661 5661
5758 5759 5759 5758 5756 5755 5751 5746 5744 5742 5742 5740 5736 5733 5729 5725 5721 5717 5713 5710 5707 5705 5702 5700 5698 5696 5694 5688 5682 5678 5680 5682 5681 5681 5680 5678 5670 5664 5659 5657 5658 5657 5655
5753 5755 5754 5753 5754 5753 5749 5746 5745 5745 5742 5739 5735 5731 5728 5725 5722 5716 5712 5709 5705 5702 5699 5697 5695 5695 5692 5688 5682 5677 5674 5675 5676 5676 5677 5675 5666 5660 5655 5652 5652 5648 5644
5747 5749 5749 5748 5749 5749 5748 5744 5744 5743 5740 5736 5732 5729 5726 5723 5721 5715 5710 5706 5702 5701 5699 5697 5695 5694 5694 5689 5681 5675 5671 5668 5667 5672 5669 5664 5657 5653 5651 5647 5645 5641 5642
5740 5742 5743 5743 5743 5744 5744 5743 5742 5740 5736 5732 5729 5726 5723 5719 5717 5714 5711 5708 5705 5702 5700 5698 5695 5693 5691 5688 5683 5678 5670 5663 5661 5662 5661 5655 5651 5648 5647 5646 5643 5641 5642
5733 5735 5736 5736 5736 5738 5738 5739 5738 5735 5731 5729 5726 5724 5721 5718 5714 5710 5710 5707 5705 5704 5699 5698 5696 5691 5688 5685 5680 5677 5673 5670 5666 5661 5658 5656 5654 5651 5649 5647 5645 5643 5640
5725 5727 5728 5729 5730 5731 5730 5731 5731 5729 5727 5724 5721 5721 5718 5714 5711 5707 5703 5697 5697 5693 5689 5687 5686 5686 5680 5674 5670 5665 5661 5657 5652 5650 5652 5651 5649 5647 5645 5644 5641 5638 5635